Atlanta, GA

9:29 AM EST on February 27, 2017 (GMT -0500)
Fulton County-Brown

Weather History for KFTY - January, 2013

Change the Weather History Date:

Monday, January 21, 2013

  Actual Average Record
Temperature  
Mean Temperature 42 °F 43 °F  
Max Temperature 55 °F 53 °F 73 °F (1999)
Min Temperature 30 °F 33 °F 16 °F (2008)
Degree Days  
Heating Degree Days 22 22  
Month to date heating degree days 462  
Since 1 July heating degree days 1599  
Moisture  
Dew Point 29 °F    
Average Humidity 61    
Maximum Humidity 96    
Minimum Humidity 35    
Precipitation  
Precipitation 0.00 in 0.16 in 1.64 in (2017)
Month to date precipitation 2.52  
Year to date precipitation 2.52  
Snow  
Snow 0.00 in - - ()
Month to date snowfall  
Since 1 July snowfall  
Snow Depth -    
Sea Level Pressure  
Sea Level Pressure 30.13 in    
Wind  
Wind Speed 3 mph (NW)    
Max Wind Speed 14 mph    
Max Gust Speed 22 mph    
Visibility 10 miles    
Events      
T = Trace of Precipitation, MM = Missing Value Source: NWS Daily Summary

Daily Weather History Graph

Daily Weather History Graph

Search for Another Location

Airport or City:

Trip Planner

Search our weather history database for the weather conditions in past years. The results will help you decide how hot, cold, wet, or windy it might be!

Date:

Astronomy

Jan. 21, 2013 Rise Set
Actual Time 7:40 AM EST 5:58 PM EST
Civil Twilight 7:14 AM EST 6:25 PM EST
Nautical Twilight 6:43 AM EST 6:55 PM EST
Astronomical Twilight 6:13 AM EST 7:25 PM EST
Moon 1:38 PM EST (1/21) 3:07 AM EST (1/21)
Length of Visible Light 11h 11m
Length of Day
10h 17m
Waxing Gibbous, 75% of the Moon is Illuminated
Jan 21
Waxing Gibbous
Jan 26
Full
Feb 3
Last Quarter
Feb 10
New
Feb 17
First Quarter

Hourly Weather History & Observations

Time (EST) Temp. Windchill Dew Point Humidity Pressure Visibility Wind Dir Wind Speed Gust Speed Precip Events Conditions
12:53 AM 35.1 °F - 33.1 °F 92% 30.12 in 10.0 mi Calm Calm - N/A   Clear
1:53 AM 35.1 °F - 33.1 °F 92% 30.12 in 10.0 mi Calm Calm - N/A   Clear
2:53 AM 34.0 °F - 32.0 °F 92% 30.11 in 10.0 mi Calm Calm - N/A   Clear
3:53 AM 35.6 °F - 33.8 °F 93% 30.10 in 10.0 mi Calm Calm - N/A   Clear
4:53 AM 34.0 °F - 32.0 °F 92% 30.10 in 10.0 mi Calm Calm - N/A   Clear
5:53 AM 34.0 °F - 32.0 °F 92% 30.10 in 10.0 mi Calm Calm - N/A   Clear
6:53 AM 33.1 °F - 30.9 °F 92% 30.12 in 10.0 mi Calm Calm - N/A   Clear
7:53 AM 30.9 °F - 30.0 °F 96% 30.13 in 8.0 mi Calm Calm - N/A   Clear
8:53 AM 37.0 °F - 33.1 °F 86% 30.14 in 10.0 mi Calm Calm - N/A   Clear
9:53 AM 45.0 °F - 34.0 °F 65% 30.15 in 10.0 mi Calm Calm - N/A   Clear
10:53 AM 52.0 °F - 32.0 °F 47% 30.15 in 10.0 mi NNW 8.1 mph - N/A   Clear
11:53 AM 55.0 °F - 30.9 °F 40% 30.15 in 10.0 mi NNW 13.8 mph 20.7 mph N/A   Clear
12:53 PM 55.0 °F - 30.9 °F 40% 30.12 in 10.0 mi NNW 10.4 mph 18.4 mph N/A   Clear
1:53 PM 55.9 °F - 30.9 °F 39% 30.11 in 10.0 mi NW 10.4 mph 20.7 mph N/A   Clear
2:53 PM 55.9 °F - 32.0 °F 40% 30.10 in 10.0 mi NNW 12.7 mph - N/A   Clear
3:53 PM 55.9 °F - 30.0 °F 37% 30.11 in 10.0 mi West 12.7 mph 21.9 mph N/A   Clear
4:53 PM 55.0 °F - 28.0 °F 35% 30.11 in 10.0 mi NW 10.4 mph - N/A   Clear
5:53 PM 51.1 °F - 26.1 °F 38% 30.14 in 10.0 mi West 11.5 mph - N/A   Clear
6:53 PM 48.0 °F - 24.1 °F 39% 30.16 in 10.0 mi WNW 6.9 mph - N/A   Clear
7:53 PM 45.0 °F 41.8 °F 24.1 °F 44% 30.16 in 10.0 mi WNW 5.8 mph - N/A   Clear
8:53 PM 43.0 °F 37.7 °F 21.0 °F 42% 30.18 in 10.0 mi NW 9.2 mph - N/A   Clear
9:53 PM 41.0 °F 38.0 °F 19.0 °F 41% 30.18 in 10.0 mi NW 4.6 mph - N/A   Clear
10:53 PM 39.0 °F 34.0 °F 19.0 °F 45% 30.19 in 10.0 mi Variable 6.9 mph - N/A   Clear
11:53 PM 37.9 °F 32.1 °F 18.0 °F 45% 30.18 in 10.0 mi NW 8.1 mph - N/A   Clear